Weather History for KOGA - September, 2013

Change the Weather History Date:

Sunday, September 29, 2013

  Actual Average Record
Temperature  
Mean Temperature 60 °F -  
Max Temperature 82 °F 72 °F 92 °F (1969)
Min Temperature 37 °F 40 °F 21 °F (1985)
Degree Days  
Heating Degree Days 6    
Growing Degree Days 10 (Base 50)    
Moisture  
Dew Point 38 °F    
Average Humidity 59    
Maximum Humidity 95    
Minimum Humidity 14    
Precipitation  
Precipitation 0.00 in - - ()
Sea Level Pressure  
Sea Level Pressure 29.94 in    
Wind  
Wind Speed 2 mph (WSW)    
Max Wind Speed 10 mph    
Max Gust Speed 17 mph    
Visibility 10 miles    
Events      
Averages and records for this station are not official NWS values.
T = Trace of Precipitation, MM = Missing Value Source: NWS Daily Summary

Daily Weather History Graph

Daily Weather History Graph

Search for Another Location

Airport or City:

Trip Planner

Search our weather history database for the weather conditions in past years. The results will help you decide how hot, cold, wet, or windy it might be!

Date:

Astronomy

Sep. 29, 2013 Rise Set
Actual Time 6:41 AM MDT 6:31 PM MDT
Civil Twilight 6:14 AM MDT 6:59 PM MDT
Nautical Twilight 5:42 AM MDT 7:31 PM MDT
Astronomical Twilight 5:10 AM MDT 8:03 PM MDT
Moon 1:22 AM MDT (9/29) 3:31 PM MDT (9/29)
Length of Visible Light 12h 44m
Length of Day
11h 49m
Waning Crescent, 26% of the Moon is Illuminated
Sep 29
Waning Crescent
Oct 4
New
Oct 11
First Quarter
Oct 18
Full
Oct 26
Last Quarter

Hourly Weather History & Observations

Time (MDT) Temp. Windchill Dew Point Humidity Pressure Visibility Wind Dir Wind Speed Gust Speed Precip Events Conditions
12:15 AM 43.3 °F - 40.5 °F 90% 30.08 in 10.0 mi Calm Calm - N/A   Clear
12:35 AM 41.9 °F - 39.4 °F 91% 30.07 in 10.0 mi Calm Calm - N/A   Clear
12:55 AM 42.8 °F - 40.3 °F 91% 30.08 in 10.0 mi Calm Calm - N/A   Clear
1:15 AM 44.1 °F - 40.5 °F 87% 30.08 in 10.0 mi Calm Calm - N/A   Clear
1:35 AM 41.7 °F - 38.8 °F 89% 30.07 in 10.0 mi Calm Calm - N/A   Clear
1:55 AM 41.4 °F - 38.5 °F 89% 30.07 in 10.0 mi Calm Calm - N/A   Clear
2:15 AM 40.3 °F - 37.4 °F 89% 30.06 in 10.0 mi Calm Calm - N/A   Clear
2:35 AM 39.9 °F - 37.0 °F 89% 30.05 in 10.0 mi Calm Calm - N/A   Clear
2:55 AM 39.2 °F - 36.3 °F 89% 30.05 in 10.0 mi Calm Calm - N/A   Clear
3:15 AM 39.6 °F - 37.4 °F 92% 30.05 in 10.0 mi Calm Calm - N/A   Clear
3:35 AM 38.7 °F - 36.3 °F 91% 30.05 in 10.0 mi Calm Calm - N/A   Clear
3:55 AM 39.4 °F - 37.6 °F 93% 30.04 in 10.0 mi Calm Calm - N/A   Clear
4:15 AM 38.8 °F 34.6 °F 37.2 °F 94% 30.04 in 10.0 mi WSW 5.8 mph - N/A   Clear
4:35 AM 38.5 °F 36.1 °F 36.9 °F 94% 30.04 in 10.0 mi WNW 3.5 mph - N/A   Clear
4:55 AM 38.7 °F 34.3 °F 37.0 °F 94% 30.04 in 10.0 mi West 5.8 mph - N/A   Clear
5:15 AM 37.9 °F 35.5 °F 36.5 °F 95% 30.04 in 10.0 mi WSW 3.5 mph - N/A   Clear
5:35 AM 37.6 °F - 36.1 °F 95% 30.03 in 10.0 mi Calm Calm - N/A   Clear
5:55 AM 38.7 °F 35.2 °F 37.4 °F 95% 30.02 in 10.0 mi West 4.6 mph - N/A   Clear
6:15 AM 38.3 °F - 36.9 °F 95% 30.03 in 10.0 mi Calm Calm - N/A   Clear
6:35 AM 37.8 °F - 36.5 °F 95% 30.03 in 10.0 mi Calm Calm - N/A   Clear
6:55 AM 39.4 °F 37.2 °F 38.1 °F 95% 30.02 in 10.0 mi WSW 3.5 mph - N/A   Clear
7:15 AM 38.1 °F - 36.5 °F 94% 30.03 in 10.0 mi Calm Calm - N/A   Clear
7:35 AM 41.0 °F - 39.2 °F 93% 30.02 in 10.0 mi Calm Calm - N/A   Clear
7:55 AM 43.0 °F - 40.8 °F 92% 30.02 in 10.0 mi Calm Calm - N/A   Clear
8:15 AM 45.3 °F - 42.6 °F 90% 30.02 in 10.0 mi Calm Calm - N/A   Clear
8:35 AM 47.7 °F - 44.2 °F 88% 30.01 in 10.0 mi Calm Calm - N/A   Clear
8:55 AM 50.9 °F - 44.1 °F 77% 30.01 in 10.0 mi WSW 4.6 mph - N/A   Clear
9:15 AM 53.4 °F - 44.4 °F 72% 30.01 in 10.0 mi WSW 4.6 mph - N/A   Clear
9:35 AM 55.2 °F - 44.4 °F 67% 30.01 in 10.0 mi SW 4.6 mph - N/A   Clear
9:55 AM 59.4 °F - 44.2 °F 57% 30.00 in 10.0 mi WSW 8.1 mph - N/A   Clear
10:15 AM 62.4 °F - 44.4 °F 52% 30.00 in 10.0 mi West 5.8 mph - N/A   Clear
10:35 AM 65.5 °F - 44.8 °F 47% 29.99 in 10.0 mi WSW 4.6 mph - N/A   Clear
10:55 AM 68.9 °F - 44.6 °F 42% 29.98 in 10.0 mi SW 5.8 mph - N/A   Clear
11:15 AM 70.7 °F - 45.5 °F 40% 29.97 in 10.0 mi Calm Calm - N/A   Clear
11:35 AM 72.5 °F - 43.9 °F 36% 29.95 in 10.0 mi SSW 3.5 mph - N/A   Clear
11:55 AM 75.4 °F - 43.7 °F 32% 29.94 in 10.0 mi NW 5.8 mph - N/A   Clear
12:15 PM 77.9 °F - 35.6 °F 22% 29.93 in 10.0 mi WSW 9.2 mph - N/A   Clear
12:35 PM 79.9 °F - 31.8 °F 17% 29.92 in 10.0 mi SSW 6.9 mph - N/A   Clear
12:55 PM 80.4 °F - 31.8 °F 17% 29.91 in 10.0 mi South 9.2 mph - N/A   Clear
1:15 PM 80.8 °F - 30.6 °F 16% 29.89 in 10.0 mi South 6.9 mph - N/A   Clear
1:35 PM 79.7 °F - 27.7 °F 15% 29.88 in 10.0 mi SSW 6.9 mph - N/A   Clear
1:55 PM 81.7 °F - 28.4 °F 14% 29.88 in 10.0 mi WSW 8.1 mph - N/A   Clear
2:15 PM 82.8 °F - 29.8 °F 15% 29.87 in 10.0 mi West 9.2 mph 17.3 mph N/A   Clear
2:35 PM 81.1 °F - 30.0 °F 16% 29.87 in 10.0 mi West 10.4 mph - N/A   Clear
2:55 PM 82.4 °F - 29.3 °F 15% 29.86 in 10.0 mi West 6.9 mph - N/A   Clear
3:15 PM 82.4 °F - 29.1 °F 14% 29.85 in 10.0 mi WSW 6.9 mph - N/A   Clear
3:35 PM 81.1 °F - 28.8 °F 15% 29.84 in 10.0 mi West 6.9 mph - N/A   Clear
3:55 PM 81.3 °F - 30.6 °F 16% 29.84 in 10.0 mi West 6.9 mph - N/A   Clear
4:15 PM 80.4 °F - 34.0 °F 19% 29.84 in 10.0 mi West 4.6 mph - N/A   Clear
4:35 PM 79.5 °F - 33.3 °F 19% 29.84 in 10.0 mi West 4.6 mph - N/A   Clear
4:55 PM 79.3 °F - 38.8 °F 23% 29.83 in 10.0 mi West 3.5 mph - N/A   Clear
5:15 PM 79.9 °F - 36.7 °F 21% 29.83 in 10.0 mi West 3.5 mph - N/A   Clear
5:35 PM 78.4 °F - 38.3 °F 24% 29.82 in 10.0 mi Calm Calm - N/A   Clear
5:55 PM 75.9 °F - 34.2 °F 22% 29.83 in 10.0 mi Calm Calm - N/A   Clear
6:15 PM 73.2 °F - 36.9 °F 27% 29.83 in 10.0 mi Calm Calm - N/A   Clear
6:35 PM 69.6 °F - 39.0 °F 33% 29.83 in 10.0 mi WSW 4.6 mph - N/A   Clear
6:55 PM 68.5 °F - 37.8 °F 32% 29.82 in 10.0 mi SSW 4.6 mph - N/A   Clear
7:15 PM 63.5 °F - 40.3 °F 43% 29.82 in 10.0 mi Calm Calm - N/A   Clear
7:35 PM 63.3 °F - 39.2 °F 41% 29.82 in 10.0 mi Calm Calm - N/A   Clear
7:55 PM 60.8 °F - 41.4 °F 49% 29.83 in 10.0 mi Calm Calm - N/A   Clear
8:15 PM 55.4 °F - 43.7 °F 65% 29.84 in 10.0 mi Calm Calm - N/A   Clear
8:35 PM 55.4 °F - 42.1 °F 61% 29.83 in 10.0 mi Calm Calm - N/A   Clear
8:55 PM 55.0 °F - 44.1 °F 67% 29.83 in 10.0 mi Calm Calm - N/A   Clear
9:15 PM 53.4 °F - 43.7 °F 70% 29.84 in 10.0 mi Calm Calm - N/A   Clear
9:35 PM 54.5 °F - 45.1 °F 71% 29.84 in 10.0 mi Calm Calm - N/A   Clear
9:55 PM 57.2 °F - 40.8 °F 54% 29.85 in 10.0 mi Calm Calm - N/A   Clear
10:15 PM 55.8 °F - 41.5 °F 59% 29.85 in 10.0 mi Calm Calm - N/A   Clear
10:35 PM 58.6 °F - 41.2 °F 52% 29.85 in 10.0 mi Calm Calm - N/A   Clear
10:55 PM 51.8 °F - 42.1 °F 69% 29.84 in 10.0 mi Calm Calm - N/A   Clear
11:15 PM 54.5 °F - 42.1 °F 63% 29.84 in 10.0 mi Calm Calm - N/A   Clear
11:35 PM 52.2 °F - 42.8 °F 70% 29.85 in 10.0 mi Calm Calm - N/A   Clear
11:55 PM 50.7 °F - 42.8 °F 74% 29.85 in 10.0 mi Calm Calm - N/A   Clear